User: anonymous   Login
Location: Borovka
(49.7741°N, 14.5280°E)
Time: 06:58:04
(UTC+00:00)
Language:

AO-73 - Orbit

View from above orbital plane
View from above orbital plane
View from above satellite
View from above satellite

Ground track
Ground track

The orbit is defined by the following mean orbital elements,

1 39444U          26069.90185536 +.00000000 +00000-0 +62451-3 0 00008
2 39444  97.8193  39.4610 0037452 174.6735 185.4898 15.07938217    06
Epoch (UTC): 10 March 2026 21:38:40
Eccentricity: 0.0037452
inclination: 97.8193°
perigee height: 517 km
apogee height: 568 km
right ascension of ascending node: 39.4610°
argument of perigee: 174.6735°
revolutions per day: 15.07938217
mean anomaly at epoch: 185.4898°

The dashed part of the orbit path shows where the satellite is in the earth's shadow,  

DLR